Willmar, MN

12:43 PM CDT on September 29, 2016 (GMT -0500)
Willmar

Weather History for KBDH - January, 2014

Change the Weather History Date:

Saturday, January 18, 2014

  Actual Average (KLJF) Record (KLJF)
Temperature  
Mean Temperature 18 °F -  
Max Temperature 24 °F 20 °F 47 °F (1981)
Min Temperature 12 °F 0 °F -31 °F (1970)
Degree Days  
Heating Degree Days 48    
Moisture  
Dew Point 12 °F    
Average Humidity 79    
Maximum Humidity 93    
Minimum Humidity 68    
Precipitation  
Precipitation 0.00 in - - ()
Sea Level Pressure  
Sea Level Pressure 29.74 in    
Wind  
Wind Speed 14 mph (NNW)    
Max Wind Speed 21 mph    
Max Gust Speed 25 mph    
Visibility 8 miles    
Events      
Averages and records for this station are not official NWS values.
T = Trace of Precipitation, MM = Missing Value Source: NWS Daily Summary

Daily Weather History Graph

Daily Weather History Graph

Search for Another Location

Airport or City:

Trip Planner

Search our weather history database for the weather conditions in past years. The results will help you decide how hot, cold, wet, or windy it might be!

Date:

Astronomy

Jan. 18, 2014 Rise Set
Actual Time 7:53 AM CST 5:08 PM CST
Civil Twilight 7:21 AM CST 5:41 PM CST
Nautical Twilight 6:44 AM CST 6:17 PM CST
Astronomical Twilight 6:09 AM CST 6:52 PM CST
Moon 8:01 PM CST (1/18) 8:45 AM CST (1/18)
Length of Visible Light 10h 20m
Length of Day
9h 15m
Waning Gibbous, 94% of the Moon is Illuminated
Jan 18
Waning Gibbous
Jan 23
Last Quarter
Jan 30
New
Feb 6
First Quarter
Feb 14
Full

Hourly Weather History & Observations

Time (CST) Temp. Windchill Dew Point Humidity Pressure Visibility Wind Dir Wind Speed Gust Speed Precip Events Conditions
12:01 AM 15.8 °F 0.9 °F 10.4 °F 79% 29.62 in 4.0 mi SE 15.0 mph - N/A   Overcast
12:41 AM 17.6 °F 2.2 °F 12.2 °F 79% 29.58 in 4.0 mi SE 17.3 mph - N/A   Overcast
1:01 AM 17.6 °F 2.2 °F 12.2 °F 79% 29.55 in 2.5 mi SE 17.3 mph - N/A   Overcast
1:21 AM 17.6 °F 1.3 °F 12.2 °F 79% 29.52 in 2.0 mi SE 19.6 mph - N/A   Overcast
1:41 AM 17.6 °F 3.7 °F 14.0 °F 86% 29.52 in 3.0 mi SE 13.8 mph - N/A   Overcast
2:01 AM 19.4 °F 6.0 °F 15.8 °F 86% 29.50 in 1.2 mi SE 13.8 mph - N/A   Overcast
2:21 AM 19.4 °F 6.0 °F 15.8 °F 86% 29.49 in 1.8 mi SE 13.8 mph - N/A   Overcast
2:41 AM 21.2 °F 7.8 °F 17.6 °F 86% 29.48 in 3.0 mi SE 15.0 mph - N/A   Overcast
3:01 AM 19.4 °F 5.0 °F 15.8 °F 86% 29.47 in 1.2 mi SE 16.1 mph - N/A   Overcast
3:21 AM 19.4 °F 5.5 °F 15.8 °F 86% 29.46 in 3.0 mi SE 15.0 mph - N/A   Overcast
3:41 AM 19.4 °F 6.0 °F 15.8 °F 86% 29.45 in 4.0 mi SE 13.8 mph - N/A   Overcast
4:01 AM 19.4 °F 6.0 °F 15.8 °F 86% 29.44 in 2.5 mi SE 13.8 mph - N/A   Overcast
4:21 AM 19.4 °F 6.6 °F 15.8 °F 86% 29.43 in 4.0 mi SE 12.7 mph - N/A   Overcast
5:01 AM 19.4 °F 8.6 °F 15.8 °F 86% 29.43 in 5.0 mi ESE 9.2 mph - N/A   Overcast
5:21 AM 19.4 °F 8.6 °F 17.6 °F 93% 29.43 in 10.0 mi East 9.2 mph - N/A   Overcast
6:01 AM 19.4 °F 7.9 °F 15.8 °F 86% 29.44 in 1.5 mi East 10.4 mph - N/A   Overcast
6:21 AM 19.4 °F 7.2 °F 15.8 °F 86% 29.46 in 1.5 mi East 11.5 mph - N/A   Overcast
6:41 AM 19.4 °F 6.0 °F 15.8 °F 86% 29.47 in 10.0 mi ENE 13.8 mph 18.4 mph N/A   Overcast
7:01 AM 17.6 °F 3.2 °F 14.0 °F 86% 29.49 in 10.0 mi ENE 15.0 mph - N/A   Overcast
7:21 AM 17.6 °F 3.2 °F 12.2 °F 79% 29.52 in 7.0 mi ENE 15.0 mph 19.6 mph N/A   Overcast
7:41 AM 17.6 °F 3.2 °F 12.2 °F 79% 29.55 in 10.0 mi ENE 15.0 mph - N/A   Overcast
8:01 AM 15.8 °F -0.6 °F 10.4 °F 79% 29.58 in 10.0 mi NE 18.4 mph 25.3 mph N/A   Overcast
8:21 AM 15.8 °F -1.1 °F 10.4 °F 79% 29.62 in 7.0 mi NE 19.6 mph 24.2 mph N/A   Overcast
8:41 AM 15.8 °F -0.2 °F 10.4 °F 79% 29.64 in 7.0 mi NE 17.3 mph - N/A   Overcast
9:01 AM 15.8 °F 0.9 °F 10.4 °F 79% 29.66 in 10.0 mi NE 15.0 mph 23.0 mph N/A   Overcast
9:21 AM 15.8 °F 0.3 °F 10.4 °F 79% 29.70 in 10.0 mi NNE 16.1 mph - N/A   Overcast
9:41 AM 15.8 °F -0.6 °F 8.6 °F 73% 29.74 in 10.0 mi NNE 18.4 mph 21.9 mph N/A   Mostly Cloudy
10:01 AM 15.8 °F -1.5 °F 8.6 °F 73% 29.75 in 7.0 mi NNE 20.7 mph 25.3 mph N/A   Clear
10:21 AM 15.8 °F -0.6 °F 8.6 °F 73% 29.79 in 10.0 mi NNE 18.4 mph - N/A   Scattered Clouds
10:41 AM 15.8 °F 0.3 °F 8.6 °F 73% 29.83 in 10.0 mi NNE 16.1 mph 21.9 mph N/A   Scattered Clouds
11:01 AM 15.8 °F 2.7 °F 8.6 °F 73% 29.85 in 10.0 mi North 11.5 mph - N/A   Clear
11:21 AM 15.8 °F 0.9 °F 8.6 °F 73% 29.86 in 10.0 mi North 15.0 mph - N/A   Mostly Cloudy
11:41 AM 17.6 °F 4.3 °F 8.6 °F 68% 29.87 in 10.0 mi North 12.7 mph - N/A   Scattered Clouds
12:01 PM 17.6 °F 5.7 °F 8.6 °F 68% 29.88 in 10.0 mi North 10.4 mph - N/A   Clear
12:21 PM 17.6 °F 4.3 °F 10.4 °F 73% 29.89 in 10.0 mi NNW 12.7 mph - N/A   Clear
12:41 PM 17.6 °F 2.2 °F 10.4 °F 73% 29.90 in 10.0 mi North 17.3 mph - N/A   Clear
1:01 PM 17.6 °F 3.2 °F 10.4 °F 73% 29.89 in 10.0 mi North 15.0 mph - N/A   Clear
1:21 PM 17.6 °F 3.2 °F 10.4 °F 73% 29.90 in 10.0 mi North 15.0 mph - N/A   Clear
1:41 PM 19.4 °F 7.9 °F 10.4 °F 68% 29.89 in 10.0 mi North 10.4 mph - N/A   Clear
2:01 PM 19.4 °F 7.9 °F 10.4 °F 68% 29.90 in 10.0 mi NNW 10.4 mph - N/A   Clear
2:21 PM 19.4 °F 6.6 °F 10.4 °F 68% 29.93 in 10.0 mi NNW 12.7 mph - N/A   Clear
2:41 PM 19.4 °F 6.0 °F 10.4 °F 68% 29.93 in 10.0 mi NW 13.8 mph - N/A   Clear
3:01 PM 19.4 °F 8.6 °F 10.4 °F 68% 29.94 in 10.0 mi WNW 9.2 mph - N/A   Clear
3:21 PM 17.6 °F 5.0 °F 10.4 °F 73% 29.95 in 10.0 mi WNW 11.5 mph - N/A   Clear
3:41 PM 17.6 °F 4.3 °F 10.4 °F 73% 29.97 in 10.0 mi WNW 12.7 mph - N/A   Clear
4:01 PM 17.6 °F 5.0 °F 10.4 °F 73% 29.97 in 10.0 mi WNW 11.5 mph - N/A   Clear
4:21 PM 17.6 °F 2.7 °F 10.4 °F 73% 29.98 in 10.0 mi WNW 16.1 mph - N/A   Clear
4:41 PM 15.8 °F 2.1 °F 8.6 °F 73% 29.98 in 10.0 mi WNW 12.7 mph - N/A   Clear
5:01 PM 14.0 °F 1.2 °F 8.6 °F 79% 29.97 in 10.0 mi WNW 10.4 mph - N/A   Clear
5:21 PM 14.0 °F 0.5 °F 8.6 °F 79% 29.96 in 10.0 mi WNW 11.5 mph - N/A   Clear
5:41 PM 14.0 °F 2.0 °F 8.6 °F 79% 29.95 in 10.0 mi WNW 9.2 mph - N/A   Clear
6:01 PM 12.2 °F -0.2 °F 8.6 °F 85% 29.96 in 10.0 mi West 9.2 mph - N/A   Clear
6:21 PM 12.2 °F 0.7 °F 8.6 °F 85% 29.96 in 10.0 mi West 8.1 mph - N/A   Clear
6:41 PM 14.0 °F 2.0 °F 8.6 °F 79% 29.95 in 10.0 mi West 9.2 mph - N/A   Clear
7:01 PM 14.0 °F 2.9 °F 10.4 °F 86% 29.95 in 10.0 mi West 8.1 mph - N/A   Scattered Clouds
7:21 PM 15.8 °F 5.1 °F 10.4 °F 79% 29.93 in 10.0 mi West 8.1 mph - N/A   Clear
7:41 PM 15.8 °F 5.1 °F 10.4 °F 79% 29.91 in 10.0 mi West 8.1 mph - N/A   Clear
8:01 PM 15.8 °F 4.2 °F 10.4 °F 79% 29.90 in 10.0 mi WSW 9.2 mph - N/A   Clear
8:21 PM 15.8 °F 6.1 °F 12.2 °F 86% 29.89 in 10.0 mi West 6.9 mph - N/A   Clear
8:41 PM 15.8 °F 4.2 °F 12.2 °F 86% 29.86 in 10.0 mi SW 9.2 mph - N/A   Scattered Clouds
9:21 PM 17.6 °F 5.0 °F 14.0 °F 86% 29.81 in 10.0 mi SW 11.5 mph - N/A   Overcast
9:41 PM 19.4 °F 7.2 °F 15.8 °F 86% 29.80 in 10.0 mi SW 11.5 mph - N/A   Scattered Clouds
10:01 PM 19.4 °F 7.9 °F 15.8 °F 86% 29.78 in 10.0 mi SW 10.4 mph - N/A   Clear
10:21 PM 19.4 °F 6.0 °F 15.8 °F 86% 29.77 in 10.0 mi SW 13.8 mph - N/A   Scattered Clouds
10:41 PM 19.4 °F 5.5 °F 15.8 °F 86% 29.76 in 10.0 mi SW 15.0 mph - N/A   Scattered Clouds
11:01 PM 21.2 °F 8.9 °F 17.6 °F 86% 29.74 in 10.0 mi SW 12.7 mph - N/A   Clear
11:21 PM 23.0 °F 8.3 °F 19.4 °F 86% 29.73 in 10.0 mi SW 19.6 mph - N/A   Clear
11:41 PM 24.8 °F 12.9 °F 19.4 °F 80% 29.72 in 10.0 mi SW 13.8 mph - N/A   Clear